KA1WBH Weather Reports


Display with metric or nautical units.
time (UTC)temp
F
wind
direction
speed
MPH
gust
MPH
rain 1hr
in
rain 24hr
in
rain mn
in
humidity
%
barometer
mb
20181020230027 58 250 0.0 8.0 0.00 0.00 0.00 85 1001.5
20181020225027 58 247 3.0 7.0 0.00 0.00 0.00 85 1001.3
20181020224027 59 250 1.0 5.0 0.00 0.00 0.00 85 1001.2
20181020223027 59 246 0.0 6.0 0.00 0.00 0.00 86 1001.1
20181020222027 59 258 2.0 8.0 0.00 0.00 0.00 85 1001.1
20181020221027 60 242 0.0 6.0 0.00 0.00 0.00 84 1000.9
20181020220027 60 241 0.0 6.0 0.00 0.00 0.00 83 1000.9
20181020215027 61 245 0.0 6.0 0.00 0.00 0.00 82 1000.8
20181020214027 61 254 0.0 9.0 0.00 0.00 0.00 79 1000.8
20181020213027 62 259 0.0 6.0 0.00 0.00 0.00 72 1000.7
20181020212027 62 278 2.0 5.0 0.00 0.00 0.00 71 1000.7
20181020211027 62 255 0.0 7.0 0.00 0.00 0.00 72 1000.7
20181020210027 62 271 3.0 10.0 0.00 0.00 0.00 71 1000.8
20181020205027 62 281 0.0 12.0 0.00 0.00 0.00 70 1000.9
20181020204027 62 293 4.0 12.0 0.00 0.00 0.00 70 1000.9
20181020203027 63 245 0.0 11.0 0.00 0.00 0.00 75 1001.0
20181020202027 62 245 0.0 7.0 0.00 0.00 0.00 77 1000.9
20181020201027 62 270 1.0 14.0 0.00 0.00 0.00 78 1001.3
20181020200027 62 256 10.0 13.0 0.00 0.00 0.00 77 1001.3
20181020195027 63 235 0.0 12.0 0.00 0.00 0.00 76 1001.4
20181020194027 63 264 0.0 19.0 0.00 0.00 0.00 74 1001.4
20181020193027 63 217 0.0 17.0 0.00 0.00 0.00 74 1001.3
20181020192027 62 248 2.0 15.0 0.00 0.00 0.00 74 1001.3
20181020191027 62 267 9.0 15.0 0.00 0.00 0.00 75 1001.5
20181020190027 62 322 1.0 19.0 0.00 0.00 0.00 76 1001.5
20181020185027 62 262 11.0 17.0 0.00 0.00 0.00 78 1001.6
20181020184027 62 240 3.0 16.0 0.00 0.00 0.00 78 1001.7
20181020183027 63 227 2.0 23.0 0.00 0.00 0.00 78 1001.9
20181020182027 63 256 7.0 20.0 0.00 0.00 0.00 76 1002.0
20181020181027 63 213 4.0 28.0 0.00 0.00 0.00 75 1002.1
20181020180027 63 216 6.0 21.0 0.00 0.00 0.00 79 1002.0
20181020175027 63 243 17.0 25.0 0.00 0.00 0.00 80 1002.4
20181020174027 63 243 10.0 25.0 0.00 0.00 0.00 81 1002.4
20181020173027 63 235 9.0 24.0 0.00 0.00 0.00 81 1002.4
20181020172027 64 254 14.0 28.0 0.00 0.00 0.00 80 1002.6
20181020171027 64 234 28.0 28.0 0.00 0.00 0.00 80 1003.0
20181020170027 63 263 4.0 32.0 0.00 0.00 0.00 82 1003.0
20181020165027 63 241 5.0 27.0 0.00 0.00 0.00 83 1003.2
20181020164027 63 227 10.0 25.0 0.00 0.00 0.00 82 1003.4
20181020163027 63 235 11.0 25.0 0.00 0.00 0.00 81 1003.5
20181020162027 63 245 18.0 26.0 0.00 0.00 0.00 81 1003.6
20181020161027 63 237 6.0 29.0 0.00 0.00 0.00 81 1003.7
20181020160027 63 237 15.0 23.0 0.00 0.00 0.00 81 1003.8
20181020155027 63 202 2.0 25.0 0.00 0.00 0.00 81 1004.2
20181020154027 63 239 4.0 27.0 0.00 0.00 0.00 81 1004.4
20181020153027 63 239 14.0 33.0 0.00 0.00 0.00 80 1004.4
20181020152027 63 239 3.0 24.0 0.00 0.00 0.00 81 1004.4
20181020151027 62 238 19.0 27.0 0.00 0.00 0.00 83 1004.4
20181020150027 61 268 6.0 33.0 0.00 0.00 0.00 84 1004.7
20181020145027 61 249 22.0 30.0 0.00 0.00 0.00 85 1005.0
20181020144027 61 254 19.0 34.0 0.00 0.00 0.00 86 1005.3
20181020143027 61 246 15.0 24.0 0.00 0.00 0.00 86 1005.5
20181020142027 60 229 17.0 30.0 0.00 0.00 0.00 86 1005.9
20181020141027 60 260 24.0 26.0 0.00 0.00 0.00 88 1006.0
20181020140027 60 248 11.0 30.0 0.00 0.00 0.00 88 1006.1
20181020135027 60 244 10.0 24.0 0.00 0.00 0.00 88 1006.2
20181020134027 60 227 1.0 26.0 0.00 0.00 0.00 85 1006.4
20181020133027 60 245 11.0 22.0 0.00 0.00 0.00 85 1006.4
20181020132027 60 273 9.0 25.0 0.00 0.00 0.00 85 1006.4
20181020131027 60 248 14.0 26.0 0.00 0.00 0.00 86 1006.3
20181020130027 60 236 3.0 26.0 0.00 0.00 0.00 85 1006.3
20181020125027 60 229 15.0 26.0 0.00 0.00 0.00 83 1006.3
20181020124027 60 246 4.0 26.0 0.00 0.00 0.00 83 1006.4
20181020123027 60 242 4.0 26.0 0.00 0.00 0.00 83 1006.4
20181020122028 60 237 12.0 26.0 0.00 0.00 0.00 82 1006.4
20181020121027 60 241 10.0 25.0 0.00 0.00 0.00 81 1006.6
20181020120027 60 251 3.0 27.0 0.00 0.00 0.00 79 1006.4
20181020115027 60 239 11.0 29.0 0.00 0.00 0.00 80 1006.2
20181020114030 60 198 12.0 25.0 0.00 0.00 0.00 81 1006.3
20181020113029 60 234 5.0 24.0 0.00 0.00 0.00 84 1006.6
20181020112027 60 245 3.0 23.0 0.00 0.00 0.00 84 1006.1
20181020111027 60 241 3.0 23.0 0.00 0.00 0.00 85 1006.5
20181020110027 60 260 13.0 26.0 0.00 0.00 0.00 85 1006.6
20181020105027 60 224 4.0 21.0 0.00 0.00 0.00 84 1006.3
20181020104027 60 252 10.0 30.0 0.00 0.00 0.00 83 1006.4
20181020103027 60 200 3.0 28.0 0.00 0.00 0.00 84 1006.4
20181020102027 60 204 5.0 21.0 0.00 0.00 0.00 84 1006.3
20181020101027 61 263 10.0 30.0 0.00 0.00 0.00 86 1006.8
20181020100027 61 217 6.0 30.0 0.00 0.00 0.00 87 1006.5
20181020095027 60 183 2.0 26.0 0.00 0.00 0.00 88 1006.8
20181020094027 60 257 7.0 24.0 0.00 0.00 0.00 87 1007.0
20181020093027 61 236 4.0 31.0 0.00 0.00 0.00 86 1007.6
20181020092027 61 245 21.0 26.0 0.00 0.00 0.00 84 1007.9
20181020091027 62 233 7.0 20.0 0.00 0.00 0.00 83 1007.9
20181020090028 61 245 6.0 20.0 0.00 0.00 0.00 83 1008.2
20181020085027 61 202 6.0 23.0 0.00 0.00 0.00 80 1008.3
20181020084028 61 250 6.0 18.0 0.00 0.00 0.00 80 1008.4
20181020083027 61 239 12.0 20.0 0.00 0.00 0.00 79 1008.4
20181020082027 61 235 13.0 19.0 0.00 0.00 0.00 77 1008.7
20181020081028 61 244 7.0 20.0 0.00 0.00 0.00 78 1008.9
20181020080027 61 247 3.0 28.0 0.00 0.00 0.00 80 1009.1
20181020075027 61 239 0.0 21.0 0.00 0.00 0.00 81 1009.1
20181020074026 61 218 9.0 22.0 0.00 0.00 0.00 82 1008.8
20181020073028 61 239 3.0 31.0 0.00 0.00 0.00 83 1009.1
20181020072026 62 250 18.0 32.0 0.00 0.00 0.00 82 1009.7
20181020071026 62 261 14.0 33.0 0.00 0.00 0.00 82 1009.6
20181020070028 62 230 25.0 32.0 0.00 0.00 0.00 81 1009.6
20181020065026 61 193 5.0 28.0 0.00 0.00 0.00 81 1009.8
20181020064026 61 227 15.0 33.0 0.00 0.00 0.00 79 1009.9
20181020063026 61 212 11.0 36.0 0.00 0.00 0.00 78 1010.3
20181020062026 61 188 2.0 33.0 0.00 0.00 0.00 78 1010.4
20181020061026 61 258 18.0 33.0 0.00 0.00 0.00 78 1010.6
20181020060026 61 244 17.0 30.0 0.00 0.00 0.00 79 1010.9
20181020055026 61 247 9.0 36.0 0.00 0.00 0.00 76 1011.1
20181020054026 61 252 19.0 32.0 0.00 0.00 0.00 77 1011.4
20181020053027 61 248 9.0 34.0 0.00 0.00 0.00 77 1011.6
20181020052026 61 305 21.0 33.0 0.00 0.00 0.00 77 1011.9
20181020051027 61 293 13.0 37.0 0.00 0.00 0.00 79 1011.9
20181020050026 61 251 19.0 33.0 0.00 0.00 0.00 78 1011.7
20181020045026 61 244 24.0 36.0 0.00 0.00 0.00 80 1011.7
20181020044026 61 221 21.0 37.0 0.00 0.00 0.00 80 1012.0
20181020043026 61 227 11.0 35.0 0.00 0.00 0.00 80 1012.3
20181020042026 61 204 17.0 40.0 0.00 0.00 0.00 80 1012.2
20181020041026 61 296 7.0 35.0 0.00 0.00 0.00 80 1012.1
20181020040026 61 212 7.0 33.0 0.00 0.00 0.00 81 1012.1
20181020035026 60 235 20.0 31.0 0.00 0.00 0.00 80 1012.3
20181020034026 60 277 12.0 26.0 0.00 0.00 0.00 80 1013.0
20181020033026 60 222 10.0 27.0 0.00 0.00 0.00 78 1013.4
20181020032026 60 258 21.0 33.0 0.00 0.00 0.00 77 1014.0
20181020031026 60 213 13.0 32.0 0.00 0.00 0.00 76 1013.7
20181020030026 60 272 12.0 34.0 0.00 0.00 0.00 78 1013.7
20181020025026 60 270 14.0 37.0 0.00 0.00 0.00 76 1013.9
20181020024026 60 250 12.0 33.0 0.00 0.00 0.00 78 1013.9
20181020023026 60 262 12.0 30.0 0.00 0.00 0.00 77 1014.1
20181020022026 60 245 9.0 32.0 0.00 0.00 0.00 76 1014.5
20181020021026 60 262 4.0 28.0 0.00 0.00 0.00 78 1014.7
20181020020026 60 283 6.0 40.0 0.00 0.00 0.00 76 1014.6
20181020015026 60 248 11.0 34.0 0.00 0.00 0.00 75 1015.0
20181020014026 60 259 24.0 32.0 0.00 0.00 0.00 75 1014.9
20181020013026 59 239 11.0 27.0 0.00 0.00 0.00 76 1015.0
20181020012026 59 209 2.0 29.0 0.00 0.00 0.00 74 1015.2
20181020011026 59 245 14.0 31.0 0.00 0.00 0.00 73 1015.4
20181020010026 59 258 7.0 29.0 0.00 0.00 0.00 72 1015.3
20181020005026 59 281 10.0 30.0 0.00 0.00 0.00 72 1015.5
20181020004026 59 198 12.0 34.0 0.00 0.00 0.00 74 1015.5
20181020003026 59 231 23.0 30.0 0.00 0.00 0.00 73 1015.7
20181020002026 59 250 5.0 23.0 0.00 0.00 0.00 73 1015.9
20181020001027 59 230 15.0 33.0 0.00 0.00 0.00 74 1016.0
20181020000026 59 212 1.0 35.0 0.00 0.00 0.00 73 1016.0
20181019235026 59 225 13.0 30.0 0.00 0.00 0.00 73 1016.2
20181019234026 58 253 16.0 21.0 0.00 0.00 0.00 74 1016.3
20181019233026 58 270 15.0 26.0 0.00 0.00 0.00 72 1016.2
20181019232026 58 260 2.0 30.0 0.00 0.00 0.00 71 1016.5
20181019231026 58 257 6.0 31.0 0.00 0.00 0.00 72 1016.6